This is the latest recevied weather packets stored in our database for station/object KD8TSA. If no packets are shown the sender has not sent any weather packets the latest 10 day(s).
| Time | Temp. | Humidity | Pressure | Rain* | Wind** | Luminosity | Snow |
|---|---|---|---|---|---|---|---|
| 1777764344 | 8.33° C | 58% | 1016 hPa | 0 mm | - | 65 W/m² | - |
| 1777764042 | 8.33° C | 59% | 1015.9 hPa | 0 mm | - | 72 W/m² | - |
| 1777763739 | 8.89° C | 58% | 1016 hPa | 0 mm | - | 72 W/m² | - |
| 1777763437 | 8.33° C | 59% | 1016 hPa | 0 mm | - | 72 W/m² | - |
| 1777763135 | 8.89° C | 58% | 1016.1 hPa | 0 mm | - | 71 W/m² | - |
| 1777762833 | 8.89° C | 58% | 1016 hPa | 0 mm | - | 74 W/m² | - |
| 1777762528 | 8.89° C | 58% | 1016 hPa | 0 mm | - | 98 W/m² | - |
| 1777762226 | 8.89° C | 57% | 1016.1 hPa | 0 mm | - | 111 W/m² | - |
| 1777761922 | 8.89° C | 58% | 1016 hPa | 0 mm | - | 95 W/m² | - |
| 1777761619 | 8.89° C | 58% | 1016 hPa | 0 mm | - | 109 W/m² | - |
| 1777761317 | 8.89° C | 58% | 1015.7 hPa | 0 mm | - | 115 W/m² | - |
| 1777761015 | 8.89° C | 58% | 1015.8 hPa | 0 mm | - | 121 W/m² | - |
| 1777760712 | 9.44° C | 56% | 1015.9 hPa | 0 mm | - | 123 W/m² | - |
| 1777760408 | 9.44° C | 57% | 1015.7 hPa | 0 mm | - | 143 W/m² | - |
| 1777760103 | 9.44° C | 57% | 1016 hPa | 0 mm | - | 161 W/m² | - |
| 1777759801 | 9.44° C | 55% | 1015.7 hPa | 0 mm | - | 189 W/m² | - |
| 1777759496 | 9.44° C | 55% | 1015.9 hPa | 0 mm | - | 173 W/m² | - |
| 1777759193 | 9.44° C | 56% | 1015.5 hPa | 0 mm | - | 385 W/m² | - |
| 1777758891 | 9.44° C | 56% | 1015.5 hPa | 0 mm | - | 157 W/m² | - |
| 1777758588 | 9.44° C | 54% | 1015.7 hPa | 0 mm | - | 145 W/m² | - |
| 1777758284 | 9.44° C | 56% | 1015.7 hPa | 0 mm | - | 128 W/m² | - |
| 1777757982 | 9.44° C | 56% | 1015.7 hPa | 0 mm | - | 142 W/m² | - |
| 1777757678 | 9.44° C | 55% | 1015.6 hPa | 0 mm | - | 165 W/m² | - |
| 1777757377 | 9.44° C | 54% | 1015.4 hPa | 0 mm | - | 214 W/m² | - |
| 1777757076 | 9.44° C | 54% | 1015.7 hPa | 0 mm | - | 166 W/m² | - |
* Rain latest hour (hover to see other rain measurements)
** Current wind speed in m/s (hover to see current wind gust speed)